Weather in Malyy Venizh

Russia / Udmurt Republic     57°52′50″N   52°29′57″E
temp.,
°C
wind,
m/s
gust,
m/s
humid.,
%
clouds,
%
prec.,
mm/h
press.,
hPa
HPBL,
m
1 july, fri
fri101:00+6n41096100 1.8 1012543
04:00+9ne41098100 6.0 1012735
07:00+9ene5109495 0.1 1014664
10:00+15ene586625 0.1 1015992
13:00+19ene575060 0.0 10161898
16:00+19ne4548100 0.0 10161771
19:00+17ne366493 0.0 1016282
22:00+11nne2279100 0.0 101724
2 july, sat
sat201:00+10nne228678 0.0 101818
04:00+9nnw228588 0.0 101714
07:00+14nnw23715 0.0 1016200
10:00+18nw23545 0.0 1015817
13:00+21wnw334651 0.0 10141798
16:00+21wnw3449100 0.0 10131650
19:00+13nne129557 1.3 101345
22:00+12n379713 1.3 1014229
3 july, sun
sun301:00+11nne259896 0.0 1014135
04:00+11nne3798100 0.0 1014218
07:00+13nne47887 0.0 1014416
10:00+17nne4562100 0.0 10131254
13:00+17ne4758100 0.0 10131512
16:00+18ne575794 0.0 10131383
19:00+17nne49660 0.0 10131254
22:00+12nne37832 0.0 1014127
4 july, mon
mon401:00+10nne35945 0.0 101491
04:00+9nne379659 0.0 1015140
07:00+13ne377748 0.0 1015325
10:00+18ne355661 0.0 10151378
13:00+21ne354245 0.0 10142259
16:00+22n354052 0.0 10132326
19:00+19nnw495880 0.0 1014408
22:00+14n22698 0.0 101424
5 july, tue
tue501:00+12nnw2271100 0.0 101418
04:00+11nw2375100 0.0 101531
07:00+16nnw246558 0.0 1015163
10:00+21nw345269 0.0 1014539
13:00+25nw45425 0.0 10131754
16:00+26wnw464321 0.0 10122040
19:00+23w496630 0.0 1012420
22:00+18w411785 0.0 1011222